CW7724 Weather Reports


Display with metric or nautical units.
time (UTC)temp
F
wind
direction
speed
MPH
gust
MPH
rain 1hr
in
rain 24hr
in
rain mn
in
humidity
%
barometer
mb
20260502163100 46 136 0.0 3.0 0.00 0.00 0.00 72 1018.6
20260502161605 45 96 0.0 3.0 0.00 0.00 0.00 73 1018.4
20260502151547 44 113 1.0 7.0 0.00 0.01 0.00 72 1018.0
20260502123042 39 140 0.0 0.0 0.00 0.14 0.00 88 1016.9
20260502121541 39 140 0.0 0.0 0.00 0.14 0.00 87 1016.8
20260502114535 39 140 0.0 0.0 0.00 0.14 0.00 87 1016.4
20260502113046 39 140 0.0 0.0 0.00 0.28 0.00 87 1016.3
20260502111535 39 190 0.0 0.0 0.00 0.28 0.00 87 1016.0
20260502110035 39 53 0.0 0.0 0.00 0.28 0.00 87 1015.5
20260502104529 39 47 0.0 0.0 0.00 0.28 0.00 87 1015.7
20260502103027 40 30 0.0 0.0 0.00 0.66 0.00 86 1015.9
20260502101528 40 30 0.0 0.0 0.00 0.66 0.00 85 1016.1
20260502091523 40 16 0.0 0.0 0.00 0.71 0.00 82 1015.7
20260502070056 40 53 0.0 0.0 0.00 0.71 0.00 83 1015.1
20260502064551 40 10 0.0 0.0 0.00 0.71 0.00 83 1015.2
20260502063043 40 350 0.0 0.0 0.00 0.71 0.00 83 1015.2
20260502061534 40 334 0.0 0.0 0.00 0.71 0.00 83 1015.3
20260502060032 40 50 0.0 0.0 0.00 0.71 0.00 82 1015.3
20260502054535 40 51 0.0 0.0 0.00 0.71 0.00 82 1015.2
20260502053030 40 59 0.0 0.0 0.00 0.71 0.71 82 1015.3
20260502051527 40 67 0.0 0.0 0.00 0.71 0.71 81 1015.3
20260502050036 40 19 0.0 0.0 0.00 0.71 0.71 81 1015.2
20260502044524 41 106 0.0 0.0 0.00 0.71 0.71 82 1015.0
20260502043023 40 337 0.0 0.0 0.00 0.71 0.71 83 1015.0
20260502041526 40 298 0.0 0.0 0.00 0.71 0.71 83 1014.9
20260502040019 40 338 0.0 0.0 0.00 0.71 0.71 83 1014.6
20260502034522 40 29 0.0 0.0 0.00 0.71 0.71 82 1014.6
20260502033016 40 73 0.0 0.0 0.00 0.71 0.71 82 1014.3
20260502031513 40 5 0.0 0.0 0.00 0.71 0.71 82 1014.0
20260502030011 40 9 0.0 0.0 0.00 0.71 0.71 82 1013.7
20260502024509 40 71 0.0 0.0 0.00 0.71 0.71 82 1013.5
20260502023007 40 22 0.0 0.0 0.00 0.71 0.71 82 1013.0
20260502021502 40 41 0.0 0.0 0.00 0.71 0.71 82 1012.8
20260502020001 41 53 0.0 0.0 0.00 0.71 0.71 81 1012.4
20260502014600 41 49 0.0 0.0 0.00 0.71 0.71 80 1012.3
20260502013105 42 38 0.0 0.0 0.00 0.71 0.71 80 1012.3
20260502011554 42 17 0.0 0.0 0.00 0.71 0.71 80 1011.8
20260502010052 42 65 0.0 0.0 0.00 0.71 0.71 79 1011.7
20260502004550 42 59 0.0 0.0 0.00 0.71 0.71 79 1011.1
20260502003049 43 88 0.0 0.0 0.00 0.72 0.71 78 1010.9
20260502001551 43 355 0.0 6.0 0.00 0.72 0.71 76 1010.8
20260502000101 46 321 1.0 15.0 0.00 0.72 0.71 74 1010.6
20260501234541 45 40 1.0 12.0 0.00 0.72 0.71 76 1010.5
20260501233040 47 333 0.0 19.0 0.00 0.72 0.71 75 1010.2
20260501231508 47 351 0.0 7.0 0.00 0.72 0.71 76 1010.1
20260501230008 48 360 2.0 16.0 0.00 0.72 0.71 72 1010.1
20260501224505 47 11 0.0 13.0 0.00 0.72 0.71 76 1009.8
20260501223002 48 42 0.0 19.0 0.00 0.72 0.71 72 1009.6
20260501221503 50 11 2.0 16.0 0.00 0.72 0.71 69 1009.4
20260501220100 49 63 2.0 16.0 0.00 0.72 0.71 69 1009.0
20260501214557 48 82 0.0 6.0 0.00 0.72 0.71 74 1008.9
20260501213056 48 101 1.0 20.0 0.00 0.72 0.71 70 1009.1
20260501211554 49 333 1.0 12.0 0.00 0.72 0.71 71 1009.2
20260501210053 47 28 0.0 14.0 0.00 0.72 0.71 72 1009.2
20260501204552 47 66 1.0 12.0 0.00 0.72 0.71 72 1009.5
20260501203052 47 24 2.0 12.0 0.00 0.72 0.71 73 1009.4
20260501201549 47 61 0.0 7.0 0.00 0.72 0.71 73 1009.3
20260501200049 46 355 1.0 8.0 0.00 0.72 0.71 73 1009.2
20260501194555 47 12 0.0 12.0 0.00 0.72 0.71 73 1009.1
20260501193045 47 21 1.0 6.0 0.00 0.72 0.71 72 1008.8
20260501191548 48 65 2.0 20.0 0.00 0.72 0.71 72 1008.6
20260501190040 48 345 0.0 17.0 0.00 0.72 0.71 74 1008.6
20260501184537 47 22 2.0 18.0 0.00 0.72 0.71 76 1008.5
20260501183037 46 13 1.0 15.0 0.00 0.72 0.71 79 1008.3
20260501181530 45 83 3.0 15.0 0.00 0.72 0.71 80 1008.4
20260501180027 45 323 4.0 15.0 0.00 0.72 0.71 79 1008.1
20260501174524 46 323 1.0 11.0 0.00 0.72 0.71 79 1008.0